Home > Weather > Pau > Past weeks

Flag for France Past Weather in Pau, Aquitaine, France — Yesterday and Last 2 Weeks

Now
68 °F

Sunny.


Feels Like: 68 °F
Forecast: 55 / 82 °F
Wind: 3 mph from North

Location: Pau Airport

Current Time: Jun 27, 2016 at 1:26:06 PM

Latest Report: Jun 27, 2016 at 1:00 PM


Visibility: 10 mi

Pressure: 30.27 "Hg

Humidity: 56%

Dew Point: 52 °F

Location of PauLocation

Past Weather in Pau — Graph

°F

Pau Temperature Yesterday

Maximum temperature yesterday: 68 °F (at 3:30 PM)
Minimum temperature yesterday: 57 °F (at 4:30 AM)
Average temperature yesterday: 63 °F

High & Low Weather Summary for the Past Weeks

 TemperatureHumidityPressure
High93 °F (Jun 22, 3:30 PM)100% (Jun 20, 5:00 AM)30.42 "Hg (Jun 20, 5:00 AM)
Low52 °F (Jun 18, 6:00 AM)34% (Jun 22, 5:00 PM)29.53 "Hg (Jun 15, 5:30 PM)
Average65 °F75%30.07 "Hg
* Reported Jun 12 12:00 PM — Jun 27 12:00 PM, Pau, Weather by CustomWeather, © 2016

Note: Actual official high and low records may vary slightly from our data, if they occured in-between our weather recording intervals... More about our weather records

Advertising

Pau Weather History for the Previous 24 Hours

Scroll right to see more
 ConditionsComfort  
Time TempWeatherWind HumidityBarometerVisibility
12:00 PM
Mon, Jun 27
64 °FScattered clouds.1 mph64%30.27 "HgN/A
11:30 AM66 °FPassing clouds.3 mph64%30.30 "HgN/A
11:00 AM64 °FPassing clouds.2 mph68%30.30 "HgN/A
10:30 AM64 °FSunny.2 mph68%30.30 "Hg10 mi
10:00 AM64 °FPassing clouds.5 mph68%30.30 "HgN/A
9:30 AM63 °FSunny.2 mph73%30.30 "Hg10 mi
9:00 AM63 °FSunny.3 mph73%30.30 "Hg10 mi
8:30 AM61 °FSunny.No wind72%30.30 "Hg10 mi
8:00 AM59 °FScattered clouds.No wind88%30.30 "HgN/A
7:30 AM57 °FPartly sunny.2 mph94%30.30 "HgN/A
7:00 AM57 °FOvercast.No wind88%30.30 "HgN/A
6:30 AM57 °FOvercast.No wind88%30.30 "HgN/A
6:00 AM57 °FOvercast.2 mph88%30.30 "HgN/A
5:30 AM57 °FPassing clouds.2 mph88%30.30 "HgN/A
5:00 AM57 °FMostly cloudy.2 mph88%30.30 "HgN/A
4:30 AM57 °FPassing clouds.3 mph88%30.27 "HgN/A
4:00 AM57 °FPassing clouds.3 mph88%30.27 "HgN/A
3:30 AM57 °FMostly cloudy.5 mph88%30.27 "HgN/A
3:00 AM57 °FMostly cloudy.3 mph88%30.27 "HgN/A
2:30 AM59 °FPassing clouds.3 mph82%30.27 "HgN/A
2:00 AM59 °FOvercast.5 mph82%30.27 "HgN/A
1:30 AM61 °FMostly cloudy.5 mph83%30.27 "HgN/A
1:00 AM61 °FOvercast.3 mph77%30.30 "HgN/A
12:30 AM61 °FMostly cloudy.3 mph77%30.27 "HgN/A
12:00 AM61 °FMostly cloudy.3 mph83%30.30 "HgN/A
11:30 PM
Sun, Jun 26
61 °FOvercast.5 mph83%30.27 "HgN/A
11:00 PM61 °FPassing clouds.6 mph77%30.27 "HgN/A
10:30 PM61 °FPartly sunny.6 mph77%30.27 "HgN/A
10:00 PM63 °FMostly cloudy.6 mph73%30.24 "HgN/A
9:30 PM64 °FPartly sunny.7 mph68%30.24 "HgN/A
9:00 PM64 °FPartly sunny.7 mph68%30.24 "HgN/A
8:30 PM66 °FMostly cloudy.8 mph64%30.24 "HgN/A
8:00 PM66 °FOvercast.7 mph64%30.21 "HgN/A
7:30 PM66 °FOvercast.7 mph60%30.21 "HgN/A
7:00 PM66 °FMostly cloudy.6 mph60%30.21 "HgN/A
6:30 PM66 °FMostly cloudy.7 mph64%30.21 "HgN/A
6:00 PM68 °FOvercast.5 mph56%30.21 "HgN/A
5:30 PM68 °FMore clouds than sun.5 mph56%30.21 "HgN/A
5:00 PM68 °FMostly cloudy.5 mph56%30.21 "HgN/A
4:30 PM68 °FOvercast.3 mph56%30.21 "HgN/A
4:00 PM68 °FMostly cloudy.3 mph56%30.21 "HgN/A
3:30 PM68 °FOvercast.5 mph56%30.21 "HgN/A
3:00 PM66 °FOvercast.5 mph64%30.21 "HgN/A
2:30 PM66 °FMore clouds than sun.6 mph60%30.21 "HgN/A
2:00 PM66 °FMore clouds than sun.3 mph60%30.21 "HgN/A
1:30 PM66 °FOvercast.5 mph60%30.21 "HgN/A
1:00 PM66 °FMore clouds than sun.3 mph56%30.21 "HgN/A
Weather by CustomWeather, © 2016

See weather overviewHow to use our weather pages